Location: Colle Santa Colomba
(42.0333°N, 12.5667°E)
Time: 02:16:59
(UTC+00:00)

Cosmos 2322 - Pass Details

Date: 25 October 2021
Orbit: 841 x 854 km, 71.0° (Epoch: 28 November)

Event Time Altitude Azimuth Distance (km) Brightness Sun altitude
Rises 18:28:58 0° 203° (SSW) 3,406 7.1 -25.9°
Reaches altitude 10° 18:31:24 10° 204° (SSW) 2,475 6.3 -26.3°
Maximum altitude 18:37:06 87° 293° (WNW) 860 3.6 -27.4°
Enters shadow 18:38:05 63° 18° (NNE) 948 3.8 -27.5°
